Time,TemperatureF,DewpointF,PressureIn,WindDirection,WindDirectionDegrees,WindSpeedMPH,WindSpeedGustMPH,Humidity,HourlyPrecipIn,Conditions,Clouds,dailyrainin,SoftwareType,DateUTC
2013-08-31 00:05:00,44.5,41.7,29.94,NNW,342,0.0,0.0,90,0.00,,,0.00,Wunderground v.1.15,2013-08-31 08:05:00,
2013-08-31 00:10:00,44.3,41.6,29.94,NNW,342,0.0,0.0,90,0.00,,,0.00,Wunderground v.1.15,2013-08-31 08:10:00,
2013-08-31 00:15:00,44.3,41.6,29.94,NNW,342,0.0,0.0,90,0.00,,,0.00,Wunderground v.1.15,2013-08-31 08:15:00,
2013-08-31 00:20:00,44.1,41.6,29.94,NNW,342,0.0,0.0,91,0.00,,,0.00,Wunderground v.1.15,2013-08-31 08:20:00,
2013-08-31 00:25:00,44.0,41.5,29.94,NNW,342,0.0,0.0,91,0.00,,,0.00,Wunderground v.1.15,2013-08-31 08:25:00,
2013-08-31 00:35:00,43.8,41.6,29.94,NNW,342,0.0,0.0,92,0.00,,,0.00,Wunderground v.1.15,2013-08-31 08:35:00,
2013-08-31 00:40:00,43.7,41.5,29.94,NNW,342,0.0,0.0,92,0.00,,,0.00,Wunderground v.1.15,2013-08-31 08:40:00,
2013-08-31 00:45:00,43.6,41.4,29.94,NNW,331,0.0,6.0,92,0.00,,,0.00,Wunderground v.1.15,2013-08-31 08:45:00,
2013-08-31 00:50:00,43.8,41.3,29.94,NNW,342,1.0,1.0,91,0.00,,,0.00,Wunderground v.1.15,2013-08-31 08:50:00,
2013-08-31 00:55:00,43.9,41.2,29.93,NNW,342,1.0,1.0,90,0.00,,,0.00,Wunderground v.1.15,2013-08-31 08:55:00,
2013-08-31 01:00:00,44.0,41.3,29.93,NNW,342,0.0,0.0,90,0.00,,,0.00,Wunderground v.1.15,2013-08-31 09:00:00,
2013-08-31 01:05:00,44.0,41.3,29.93,NNW,342,0.0,0.0,90,0.00,,,0.00,Wunderground v.1.15,2013-08-31 09:05:00,
2013-08-31 01:10:00,44.0,41.3,29.93,NNW,342,0.0,0.0,90,0.00,,,0.00,Wunderground v.1.15,2013-08-31 09:10:00,
2013-08-31 01:15:00,43.9,41.4,29.93,NNW,342,0.0,0.0,91,0.00,,,0.00,Wunderground v.1.15,2013-08-31 09:15:00,
2013-08-31 01:20:00,43.8,41.3,29.93,NNW,342,0.0,0.0,91,0.00,,,0.00,Wunderground v.1.15,2013-08-31 09:20:00,
2013-08-31 01:25:00,43.7,41.2,29.93,NNW,342,0.0,0.0,91,0.00,,,0.00,Wunderground v.1.15,2013-08-31 09:25:00,
2013-08-31 01:30:00,43.6,41.4,29.93,NNW,342,0.0,0.0,92,0.00,,,0.00,Wunderground v.1.15,2013-08-31 09:30:00,
2013-08-31 01:35:00,43.5,41.3,29.93,NNW,342,0.0,0.0,92,0.00,,,0.00,Wunderground v.1.15,2013-08-31 09:35:00,
2013-08-31 01:40:00,43.5,41.3,29.93,NNW,342,0.0,0.0,92,0.00,,,0.00,Wunderground v.1.15,2013-08-31 09:40:00,
2013-08-31 01:45:00,43.6,41.4,29.93,NNW,342,0.0,0.0,92,0.00,,,0.00,Wunderground v.1.15,2013-08-31 09:45:00,
2013-08-31 01:50:00,43.6,41.4,29.93,NNW,342,0.0,0.0,92,0.00,,,0.00,Wunderground v.1.15,2013-08-31 09:50:00,
2013-08-31 01:55:00,43.5,41.3,29.93,NNW,342,0.0,0.0,92,0.00,,,0.00,Wunderground v.1.15,2013-08-31 09:55:00,
2013-08-31 02:00:00,43.5,41.3,29.93,NNW,342,0.0,0.0,92,0.00,,,0.00,Wunderground v.1.15,2013-08-31 10:00:00,
2013-08-31 02:10:00,43.3,41.1,29.93,East,96,0.0,2.0,92,0.00,,,0.00,Wunderground v.1.15,2013-08-31 10:10:00,
2013-08-31 02:15:00,43.2,41.3,29.93,ESE,102,0.0,2.0,93,0.00,,,0.01,Wunderground v.1.15,2013-08-31 10:15:00,
2013-08-31 02:20:00,43.0,41.1,29.93,ESE,102,0.0,0.0,93,0.00,,,0.01,Wunderground v.1.15,2013-08-31 10:20:00,
2013-08-31 02:25:00,42.9,41.3,29.92,ESE,102,0.0,0.0,94,0.00,,,0.01,Wunderground v.1.15,2013-08-31 10:25:00,
2013-08-31 02:30:00,42.8,41.2,29.92,ESE,102,0.0,0.0,94,0.00,,,0.01,Wunderground v.1.15,2013-08-31 10:30:00,
2013-08-31 02:40:00,42.6,41.3,29.92,ESE,102,0.0,0.0,95,0.00,,,0.01,Wunderground v.1.15,2013-08-31 10:40:00,
2013-08-31 02:45:00,42.5,41.2,29.92,ESE,102,0.0,0.0,95,0.00,,,0.01,Wunderground v.1.15,2013-08-31 10:45:00,
2013-08-31 02:50:00,42.4,41.1,29.92,ESE,102,0.0,0.0,95,0.00,,,0.01,Wunderground v.1.15,2013-08-31 10:50:00,
2013-08-31 02:55:00,42.3,41.0,29.92,ESE,102,0.0,0.0,95,0.00,,,0.01,Wunderground v.1.15,2013-08-31 10:55:00,
2013-08-31 03:00:00,42.2,40.9,29.92,ESE,102,0.0,0.0,95,0.00,,,0.01,Wunderground v.1.15,2013-08-31 11:00:00,
2013-08-31 03:05:00,42.2,40.9,29.92,ESE,102,0.0,0.0,95,0.00,,,0.01,Wunderground v.1.15,2013-08-31 11:05:00,
2013-08-31 03:10:00,42.3,41.0,29.92,ESE,102,0.0,0.0,95,0.00,,,0.01,Wunderground v.1.15,2013-08-31 11:10:00,
2013-08-31 03:15:00,42.3,41.2,29.92,ESE,102,0.0,0.0,96,0.00,,,0.01,Wunderground v.1.15,2013-08-31 11:15:00,
2013-08-31 03:20:00,42.3,41.2,29.92,ESE,102,0.0,0.0,96,0.00,,,0.01,Wunderground v.1.15,2013-08-31 11:20:00,
2013-08-31 03:25:00,42.3,41.2,29.92,ESE,102,0.0,0.0,96,0.00,,,0.01,Wunderground v.1.15,2013-08-31 11:25:00,
2013-08-31 03:30:00,42.3,41.2,29.92,ESE,102,0.0,0.0,96,0.00,,,0.01,Wunderground v.1.15,2013-08-31 11:30:00,
2013-08-31 03:40:00,42.3,41.2,29.91,ESE,102,0.0,0.0,96,0.00,,,0.01,Wunderground v.1.15,2013-08-31 11:40:00,
2013-08-31 03:45:00,42.3,41.2,29.91,ESE,102,0.0,0.0,96,0.00,,,0.01,Wunderground v.1.15,2013-08-31 11:45:00,
2013-08-31 03:50:00,42.3,41.2,29.91,ESE,102,0.0,0.0,96,0.00,,,0.01,Wunderground v.1.15,2013-08-31 11:50:00,
2013-08-31 03:55:00,42.3,41.2,29.91,ESE,102,0.0,0.0,96,0.00,,,0.01,Wunderground v.1.15,2013-08-31 11:55:00,
2013-08-31 04:00:00,42.2,41.1,29.91,ESE,102,0.0,0.0,96,0.00,,,0.01,Wunderground v.1.15,2013-08-31 12:00:00,
2013-08-31 04:10:00,42.2,41.1,29.90,ESE,102,0.0,0.0,96,0.00,,,0.02,Wunderground v.1.15,2013-08-31 12:10:00,
2013-08-31 04:15:00,42.2,41.1,29.90,ESE,102,0.0,2.0,96,0.00,,,0.02,Wunderground v.1.15,2013-08-31 12:15:00,
2013-08-31 04:20:00,42.2,41.1,29.90,East,89,0.0,0.0,96,0.00,,,0.02,Wunderground v.1.15,2013-08-31 12:20:00,
2013-08-31 04:25:00,42.2,40.9,29.90,NNW,346,1.0,1.0,95,0.00,,,0.02,Wunderground v.1.15,2013-08-31 12:25:00,
2013-08-31 04:30:00,42.3,41.0,29.91,NNW,329,1.0,1.0,95,0.00,,,0.02,Wunderground v.1.15,2013-08-31 12:30:00,
2013-08-31 04:35:00,42.4,40.8,29.91,NNW,329,0.0,1.0,94,0.00,,,0.02,Wunderground v.1.15,2013-08-31 12:35:00,
2013-08-31 04:40:00,42.4,40.8,29.90,NNW,329,0.0,0.0,94,0.00,,,0.02,Wunderground v.1.15,2013-08-31 12:40:00,
2013-08-31 04:45:00,42.3,40.7,29.90,NNW,329,0.0,0.0,94,0.00,,,0.02,Wunderground v.1.15,2013-08-31 12:45:00,
2013-08-31 04:50:00,42.2,40.9,29.90,ENE,59,0.0,2.0,95,0.00,,,0.02,Wunderground v.1.15,2013-08-31 12:50:00,
2013-08-31 04:55:00,42.1,40.5,29.90,ENE,57,0.0,2.0,94,0.00,,,0.02,Wunderground v.1.15,2013-08-31 12:55:00,
2013-08-31 05:00:00,42.1,40.2,29.90,ENE,57,0.0,0.0,93,0.00,,,0.02,Wunderground v.1.15,2013-08-31 13:00:00,
2013-08-31 05:05:00,42.2,40.3,29.90,NE,54,1.0,1.0,93,0.00,,,0.02,Wunderground v.1.15,2013-08-31 13:05:00,
2013-08-31 05:10:00,42.2,40.3,29.90,NE,54,1.0,1.0,93,0.00,,,0.02,Wunderground v.1.15,2013-08-31 13:10:00,
2013-08-31 05:15:00,42.3,40.4,29.90,NE,54,1.0,1.0,93,0.00,,,0.02,Wunderground v.1.15,2013-08-31 13:15:00,
2013-08-31 05:20:00,42.2,40.6,29.90,NE,54,0.0,3.0,94,0.00,,,0.02,Wunderground v.1.15,2013-08-31 13:20:00,
2013-08-31 05:25:00,42.0,40.4,29.90,NE,54,0.0,3.0,94,0.00,,,0.02,Wunderground v.1.15,2013-08-31 13:25:00,
2013-08-31 05:30:00,42.0,40.4,29.90,NE,54,0.0,0.0,94,0.00,,,0.02,Wunderground v.1.15,2013-08-31 13:30:00,
2013-08-31 05:35:00,41.8,40.2,29.89,NE,54,1.0,1.0,94,0.00,,,0.02,Wunderground v.1.15,2013-08-31 13:35:00,
2013-08-31 05:40:00,41.8,40.2,29.89,NNW,338,2.0,5.0,94,0.00,,,0.02,Wunderground v.1.15,2013-08-31 13:40:00,
2013-08-31 05:45:00,42.1,40.2,29.89,NNW,332,3.0,5.0,93,0.00,,,0.02,Wunderground v.1.15,2013-08-31 13:45:00,
2013-08-31 05:50:00,42.2,40.0,29.89,NW,311,3.0,3.0,92,0.00,,,0.02,Wunderground v.1.15,2013-08-31 13:50:00,
2013-08-31 05:55:00,42.4,40.2,29.89,NNW,338,3.0,3.0,92,0.00,,,0.02,Wunderground v.1.15,2013-08-31 13:55:00,
2013-08-31 06:00:00,42.3,39.9,29.89,NNW,343,3.0,3.0,91,0.00,,,0.02,Wunderground v.1.15,2013-08-31 14:00:00,
2013-08-31 06:05:00,42.3,39.9,29.89,NNW,347,4.0,6.0,91,0.00,,,0.02,Wunderground v.1.15,2013-08-31 14:05:00,
2013-08-31 06:10:00,42.4,40.0,29.89,North,355,4.0,4.0,91,0.00,,,0.02,Wunderground v.1.15,2013-08-31 14:10:00,
2013-08-31 06:15:00,42.5,39.8,29.89,NNW,336,4.0,6.0,90,0.00,,,0.02,Wunderground v.1.15,2013-08-31 14:15:00,
2013-08-31 06:20:00,42.5,39.8,29.89,North,350,5.0,7.0,90,0.00,,,0.02,Wunderground v.1.15,2013-08-31 14:20:00,
2013-08-31 06:25:00,42.6,39.9,29.89,North,10,6.0,7.0,90,0.00,,,0.02,Wunderground v.1.15,2013-08-31 14:25:00,
2013-08-31 06:30:00,42.6,39.6,29.88,North,355,6.0,6.0,89,0.00,,,0.02,Wunderground v.1.15,2013-08-31 14:30:00,
2013-08-31 06:40:00,42.7,39.7,29.88,North,351,8.0,8.0,89,0.00,,,0.02,Wunderground v.1.15,2013-08-31 14:40:00,
2013-08-31 06:45:00,42.8,39.8,29.88,NNE,15,7.0,9.0,89,0.00,,,0.02,Wunderground v.1.15,2013-08-31 14:45:00,
2013-08-31 06:50:00,42.8,39.8,29.88,NNW,329,6.0,6.0,89,0.00,,,0.02,Wunderground v.1.15,2013-08-31 14:50:00,
2013-08-31 06:55:00,42.8,39.8,29.88,North,5,6.0,6.0,89,0.00,,,0.02,Wunderground v.1.15,2013-08-31 14:55:00,
2013-08-31 07:00:00,42.8,39.8,29.88,NNW,346,5.0,5.0,89,0.00,,,0.02,Wunderground v.1.15,2013-08-31 15:00:00,
2013-08-31 07:05:00,42.8,39.8,29.88,North,5,5.0,7.0,89,0.00,,,0.02,Wunderground v.1.15,2013-08-31 15:05:00,
2013-08-31 07:10:00,42.9,39.6,29.88,North,5,5.0,5.0,88,0.00,,,0.02,Wunderground v.1.15,2013-08-31 15:10:00,
2013-08-31 07:15:00,42.9,39.6,29.88,NNW,333,6.0,6.0,88,0.00,,,0.02,Wunderground v.1.15,2013-08-31 15:15:00,
2013-08-31 07:20:00,43.0,39.4,29.88,North,5,6.0,8.0,87,0.00,,,0.02,Wunderground v.1.15,2013-08-31 15:20:00,
2013-08-31 07:25:00,43.1,39.5,29.88,NNW,338,6.0,8.0,87,0.00,,,0.02,Wunderground v.1.15,2013-08-31 15:25:00,
2013-08-31 07:30:00,43.1,39.2,29.88,NNW,345,6.0,6.0,86,0.00,,,0.02,Wunderground v.1.15,2013-08-31 15:30:00,
2013-08-31 07:35:00,43.2,39.3,29.88,NNW,336,6.0,6.0,86,0.00,,,0.02,Wunderground v.1.15,2013-08-31 15:35:00,
2013-08-31 07:40:00,43.3,39.4,29.88,NNW,342,6.0,6.0,86,0.00,,,0.02,Wunderground v.1.15,2013-08-31 15:40:00,
2013-08-31 07:45:00,43.2,39.3,29.88,NNW,337,5.0,8.0,86,0.00,,,0.02,Wunderground v.1.15,2013-08-31 15:45:00,
2013-08-31 07:50:00,43.2,39.0,29.88,NW,313,5.0,6.0,85,0.00,,,0.02,Wunderground v.1.15,2013-08-31 15:50:00,
2013-08-31 07:55:00,43.1,38.9,29.88,North,350,5.0,6.0,85,0.00,,,0.02,Wunderground v.1.15,2013-08-31 15:55:00,
2013-08-31 08:00:00,43.1,38.9,29.87,North,355,4.0,5.0,85,0.00,,,0.02,Wunderground v.1.15,2013-08-31 16:00:00,
2013-08-31 08:05:00,43.2,39.0,29.87,North,360,4.0,5.0,85,0.00,,,0.02,Wunderground v.1.15,2013-08-31 16:05:00,
2013-08-31 08:10:00,43.2,39.0,29.87,NNE,13,3.0,6.0,85,0.00,,,0.02,Wunderground v.1.15,2013-08-31 16:10:00,
2013-08-31 08:20:00,43.4,38.9,29.87,North,350,5.0,5.0,84,0.00,,,0.02,Wunderground v.1.15,2013-08-31 16:20:00,
2013-08-31 08:25:00,43.3,38.8,29.87,North,360,5.0,5.0,84,0.00,,,0.02,Wunderground v.1.15,2013-08-31 16:25:00,
2013-08-31 08:30:00,43.4,38.9,29.87,NNW,346,5.0,7.0,84,0.00,,,0.02,Wunderground v.1.15,2013-08-31 16:30:00,
2013-08-31 08:35:00,43.5,39.0,29.87,NNW,336,5.0,7.0,84,0.00,,,0.02,Wunderground v.1.15,2013-08-31 16:35:00,
2013-08-31 08:40:00,43.6,38.8,29.87,NNW,331,5.0,8.0,83,0.00,,,0.02,Wunderground v.1.15,2013-08-31 16:40:00,
2013-08-31 08:45:00,43.8,39.0,29.87,NNE,26,5.0,8.0,83,0.00,,,0.02,Wunderground v.1.15,2013-08-31 16:45:00,
2013-08-31 08:50:00,44.0,38.9,29.87,North,355,5.0,5.0,82,0.00,,,0.02,Wunderground v.1.15,2013-08-31 16:50:00,
2013-08-31 09:00:00,44.3,38.8,29.87,NNW,348,4.0,4.0,81,0.00,,,0.02,Wunderground v.1.15,2013-08-31 17:00:00,
2013-08-31 09:05:00,44.4,38.9,29.87,WNW,294,4.0,4.0,81,0.00,,,0.02,Wunderground v.1.15,2013-08-31 17:05:00,
2013-08-31 09:10:00,44.6,39.1,29.87,NW,324,3.0,5.0,81,0.00,,,0.02,Wunderground v.1.15,2013-08-31 17:10:00,
2013-08-31 09:20:00,44.9,39.7,29.87,NNW,346,2.0,2.0,82,0.00,,,0.02,Wunderground v.1.15,2013-08-31 17:20:00,
2013-08-31 09:25:00,45.0,39.5,29.87,NW,324,3.0,5.0,81,0.00,,,0.02,Wunderground v.1.15,2013-08-31 17:25:00,
2013-08-31 09:30:00,45.2,40.0,29.87,North,360,4.0,8.0,82,0.00,,,0.02,Wunderground v.1.15,2013-08-31 17:30:00,
2013-08-31 09:35:00,45.4,39.6,29.87,NW,319,5.0,8.0,80,0.00,,,0.02,Wunderground v.1.15,2013-08-31 17:35:00,
2013-08-31 09:40:00,45.5,39.4,29.87,NW,324,4.0,4.0,79,0.00,,,0.02,Wunderground v.1.15,2013-08-31 17:40:00,
2013-08-31 09:45:00,45.7,40.2,29.87,WNW,293,2.0,4.0,81,0.00,,,0.02,Wunderground v.1.15,2013-08-31 17:45:00,
2013-08-31 09:50:00,45.8,40.0,29.87,NNW,343,1.0,5.0,80,0.00,,,0.02,Wunderground v.1.15,2013-08-31 17:50:00,
2013-08-31 09:55:00,46.5,41.0,29.86,NE,41,3.0,5.0,81,0.00,,,0.02,Wunderground v.1.15,2013-08-31 17:55:00,
2013-08-31 10:00:00,46.5,39.7,29.86,WNW,285,3.0,3.0,77,0.00,,,0.02,Wunderground v.1.15,2013-08-31 18:00:00,
2013-08-31 10:05:00,46.5,39.7,29.87,WNW,285,1.0,3.0,77,0.00,,,0.02,Wunderground v.1.15,2013-08-31 18:05:00,
2013-08-31 10:10:00,46.4,39.9,29.87,North,350,1.0,6.0,78,0.00,,,0.02,Wunderground v.1.15,2013-08-31 18:10:00,
2013-08-31 10:15:00,46.3,39.1,29.87,NNW,344,1.0,6.0,76,0.00,,,0.02,Wunderground v.1.15,2013-08-31 18:15:00,
2013-08-31 10:20:00,46.3,39.1,29.87,North,10,1.0,3.0,76,0.00,,,0.02,Wunderground v.1.15,2013-08-31 18:20:00,
2013-08-31 10:25:00,46.4,39.6,29.87,NW,319,2.0,3.0,77,0.00,,,0.02,Wunderground v.1.15,2013-08-31 18:25:00,
2013-08-31 10:30:00,46.4,39.6,29.87,NNW,343,2.0,2.0,77,0.00,,,0.02,Wunderground v.1.15,2013-08-31 18:30:00,
2013-08-31 10:35:00,46.2,39.4,29.87,NNW,340,2.0,2.0,77,0.00,,,0.02,Wunderground v.1.15,2013-08-31 18:35:00,
2013-08-31 10:40:00,46.1,39.3,29.87,NNW,330,3.0,3.0,77,0.00,,,0.02,Wunderground v.1.15,2013-08-31 18:40:00,
2013-08-31 10:45:00,46.2,39.7,29.87,NNW,348,3.0,3.0,78,0.00,,,0.02,Wunderground v.1.15,2013-08-31 18:45:00,
2013-08-31 10:55:00,46.7,39.9,29.87,NNW,346,4.0,7.0,77,0.00,,,0.02,Wunderground v.1.15,2013-08-31 18:55:00,
2013-08-31 11:00:00,46.9,39.7,29.87,NW,309,5.0,5.0,76,0.00,,,0.02,Wunderground v.1.15,2013-08-31 19:00:00,
2013-08-31 11:05:00,46.9,39.7,29.87,NNW,344,5.0,6.0,76,0.00,,,0.02,Wunderground v.1.15,2013-08-31 19:05:00,
2013-08-31 11:10:00,47.0,39.8,29.87,North,5,3.0,3.0,76,0.00,,,0.02,Wunderground v.1.15,2013-08-31 19:10:00,
2013-08-31 11:15:00,47.3,40.8,29.87,NE,40,3.0,3.0,78,0.00,,,0.02,Wunderground v.1.15,2013-08-31 19:15:00,
2013-08-31 11:20:00,47.7,40.5,29.87,North,351,4.0,4.0,76,0.00,,,0.02,Wunderground v.1.15,2013-08-31 19:20:00,
2013-08-31 11:26:00,47.7,40.5,29.86,NNW,329,5.0,6.0,76,0.00,,,0.02,Wunderground v.1.15,2013-08-31 19:26:00,
2013-08-31 11:40:00,49.4,42.1,29.86,North,355,4.0,7.0,76,0.00,,,0.02,Wunderground v.1.15,2013-08-31 19:40:00,
2013-08-31 11:45:00,50.1,42.8,29.86,NNW,339,4.0,7.0,76,0.00,,,0.02,Wunderground v.1.15,2013-08-31 19:45:00,
2013-08-31 11:50:00,50.1,41.8,29.86,NNE,32,5.0,5.0,73,0.00,,,0.02,Wunderground v.1.15,2013-08-31 19:50:00,
2013-08-31 11:55:00,50.4,42.8,29.86,NE,47,5.0,5.0,75,0.00,,,0.02,Wunderground v.1.15,2013-08-31 19:55:00,
2013-08-31 12:00:00,50.8,42.5,29.86,NNE,19,5.0,5.0,73,0.00,,,0.02,Wunderground v.1.15,2013-08-31 20:00:00,
2013-08-31 12:05:00,51.3,42.9,29.86,NNE,30,5.0,10.0,73,0.00,,,0.02,Wunderground v.1.15,2013-08-31 20:05:00,
2013-08-31 12:10:00,51.5,42.8,29.86,NNE,32,5.0,5.0,72,0.00,,,0.02,Wunderground v.1.15,2013-08-31 20:10:00,
2013-08-31 12:15:00,51.6,42.5,29.86,NNE,15,5.0,5.0,71,0.00,,,0.02,Wunderground v.1.15,2013-08-31 20:15:00,
2013-08-31 12:20:00,51.6,42.5,29.86,NNE,29,6.0,6.0,71,0.00,,,0.02,Wunderground v.1.15,2013-08-31 20:20:00,
2013-08-31 12:25:00,51.4,42.3,29.86,North,350,5.0,6.0,71,0.00,,,0.02,Wunderground v.1.15,2013-08-31 20:25:00,
2013-08-31 12:30:00,51.2,42.1,29.86,NE,49,5.0,6.0,71,0.00,,,0.02,Wunderground v.1.15,2013-08-31 20:30:00,
2013-08-31 12:35:00,51.3,42.2,29.86,North,360,6.0,6.0,71,0.00,,,0.02,Wunderground v.1.15,2013-08-31 20:35:00,
2013-08-31 12:40:00,51.3,41.8,29.86,NNE,31,6.0,9.0,70,0.00,,,0.02,Wunderground v.1.15,2013-08-31 20:40:00,
2013-08-31 12:45:00,51.1,42.0,29.86,NE,49,6.0,9.0,71,0.00,,,0.02,Wunderground v.1.15,2013-08-31 20:45:00,
2013-08-31 12:55:00,51.3,41.8,29.86,NNW,345,6.0,10.0,70,0.00,,,0.02,Wunderground v.1.15,2013-08-31 20:55:00,
2013-08-31 13:00:00,51.6,42.1,29.85,ENE,67,6.0,6.0,70,0.00,,,0.02,Wunderground v.1.15,2013-08-31 21:00:00,
2013-08-31 13:05:00,51.7,41.9,29.85,North,349,6.0,7.0,69,0.00,,,0.02,Wunderground v.1.15,2013-08-31 21:05:00,
2013-08-31 13:10:00,51.0,42.3,29.85,North,10,7.0,10.0,72,0.00,,,0.02,Wunderground v.1.15,2013-08-31 21:10:00,
2013-08-31 13:15:00,51.0,41.2,29.85,North,355,7.0,10.0,69,0.00,,,0.02,Wunderground v.1.15,2013-08-31 21:15:00,
2013-08-31 13:20:00,51.5,41.7,29.85,NNE,17,6.0,6.0,69,0.00,,,0.02,Wunderground v.1.15,2013-08-31 21:20:00,
2013-08-31 13:25:00,51.6,42.1,29.85,NNE,19,5.0,6.0,70,0.00,,,0.02,Wunderground v.1.15,2013-08-31 21:25:00,
2013-08-31 13:30:00,52.3,42.4,29.85,ENE,57,5.0,5.0,69,0.00,,,0.02,Wunderground v.1.15,2013-08-31 21:30:00,
2013-08-31 13:35:00,52.6,41.9,29.85,NNW,332,6.0,7.0,67,0.00,,,0.02,Wunderground v.1.15,2013-08-31 21:35:00,
2013-08-31 13:40:00,52.3,42.4,29.85,North,11,5.0,7.0,69,0.00,,,0.02,Wunderground v.1.15,2013-08-31 21:40:00,
2013-08-31 13:45:00,52.3,42.0,29.84,North,360,4.0,7.0,68,0.00,,,0.02,Wunderground v.1.15,2013-08-31 21:45:00,
2013-08-31 13:50:00,52.8,42.1,29.85,NNE,25,5.0,5.0,67,0.00,,,0.02,Wunderground v.1.15,2013-08-31 21:50:00,
2013-08-31 13:55:00,53.7,43.4,29.85,North,5,5.0,10.0,68,0.00,,,0.02,Wunderground v.1.15,2013-08-31 21:55:00,
2013-08-31 14:00:00,54.3,43.2,29.85,East,98,5.0,6.0,66,0.00,,,0.02,Wunderground v.1.15,2013-08-31 22:00:00,
2013-08-31 14:05:00,54.7,42.8,29.84,NE,46,5.0,6.0,64,0.00,,,0.02,Wunderground v.1.15,2013-08-31 22:05:00,
2013-08-31 14:10:00,54.4,42.5,29.85,ENE,76,7.0,12.0,64,0.00,,,0.02,Wunderground v.1.15,2013-08-31 22:10:00,
2013-08-31 14:15:00,54.2,43.1,29.84,NE,43,7.0,12.0,66,0.00,,,0.02,Wunderground v.1.15,2013-08-31 22:15:00,
2013-08-31 14:20:00,54.6,42.7,29.84,East,80,7.0,7.0,64,0.00,,,0.02,Wunderground v.1.15,2013-08-31 22:20:00,
2013-08-31 14:25:00,54.5,42.2,29.85,ENE,61,8.0,8.0,63,0.00,,,0.02,Wunderground v.1.15,2013-08-31 22:25:00,
2013-08-31 14:30:00,54.4,42.5,29.85,East,91,7.0,7.0,64,0.00,,,0.02,Wunderground v.1.15,2013-08-31 22:30:00,
2013-08-31 14:35:00,54.5,42.2,29.85,North,5,7.0,7.0,63,0.00,,,0.02,Wunderground v.1.15,2013-08-31 22:35:00,
2013-08-31 14:45:00,54.3,42.8,29.85,ENE,78,5.0,6.0,65,0.00,,,0.02,Wunderground v.1.15,2013-08-31 22:45:00,
2013-08-31 14:50:00,53.2,41.7,29.85,East,88,4.0,4.0,65,0.00,,,0.02,Wunderground v.1.15,2013-08-31 22:50:00,
2013-08-31 14:55:00,52.2,41.2,29.85,North,360,5.0,9.0,66,0.00,,,0.02,Wunderground v.1.15,2013-08-31 22:55:00,
2013-08-31 15:00:00,51.8,41.6,29.85,ENE,67,6.0,6.0,68,0.00,,,0.02,Wunderground v.1.15,2013-08-31 23:00:00,
2013-08-31 15:05:00,51.5,41.3,29.85,NE,38,5.0,6.0,68,0.00,,,0.02,Wunderground v.1.15,2013-08-31 23:05:00,
2013-08-31 15:10:00,51.4,41.6,29.85,NE,44,5.0,5.0,69,0.00,,,0.02,Wunderground v.1.15,2013-08-31 23:10:00,
2013-08-31 15:15:00,51.9,42.8,29.85,NNE,28,6.0,6.0,71,0.00,,,0.02,Wunderground v.1.15,2013-08-31 23:15:00,
2013-08-31 15:20:00,52.4,42.5,29.85,NE,51,5.0,8.0,69,0.00,,,0.02,Wunderground v.1.15,2013-08-31 23:20:00,
2013-08-31 15:25:00,52.8,42.5,29.85,East,92,5.0,8.0,68,0.00,,,0.02,Wunderground v.1.15,2013-08-31 23:25:00,
2013-08-31 15:30:00,53.4,43.5,29.85,ENE,67,4.0,7.0,69,0.00,,,0.02,Wunderground v.1.15,2013-08-31 23:30:00,
2013-08-31 15:35:00,53.8,43.5,29.84,ENE,74,4.0,11.0,68,0.00,,,0.02,Wunderground v.1.15,2013-08-31 23:35:00,
2013-08-31 15:40:00,53.9,43.2,29.85,NE,41,5.0,5.0,67,0.00,,,0.02,Wunderground v.1.15,2013-08-31 23:40:00,
2013-08-31 15:45:00,53.8,43.1,29.84,NE,38,5.0,11.0,67,0.00,,,0.02,Wunderground v.1.15,2013-08-31 23:45:00,
2013-08-31 15:50:00,53.4,43.5,29.84,NE,51,5.0,12.0,69,0.00,,,0.02,Wunderground v.1.15,2013-08-31 23:50:00,
2013-08-31 15:55:00,52.6,42.7,29.84,NE,51,6.0,12.0,69,0.00,,,0.02,Wunderground v.1.15,2013-08-31 23:55:00,
2013-08-31 16:00:00,52.3,42.4,29.84,NE,49,7.0,8.0,69,0.00,,,0.02,Wunderground v.1.15,2013-09-01 00:00:00,
2013-08-31 16:05:00,52.1,42.6,29.84,NNE,19,5.0,8.0,70,0.00,,,0.02,Wunderground v.1.15,2013-09-01 00:05:00,
2013-08-31 16:10:00,52.1,42.2,29.84,ENE,74,4.0,4.0,69,0.00,,,0.02,Wunderground v.1.15,2013-09-01 00:10:00,
2013-08-31 16:15:00,52.0,42.1,29.84,ENE,75,5.0,5.0,69,0.00,,,0.02,Wunderground v.1.15,2013-09-01 00:15:00,
2013-08-31 16:20:00,51.8,42.3,29.84,NE,55,4.0,4.0,70,0.00,,,0.02,Wunderground v.1.15,2013-09-01 00:20:00,
2013-08-31 16:25:00,51.9,42.4,29.84,NE,46,3.0,6.0,70,0.00,,,0.02,Wunderground v.1.15,2013-09-01 00:25:00,
2013-08-31 16:30:00,51.9,41.7,29.84,NNE,13,3.0,5.0,68,0.00,,,0.02,Wunderground v.1.15,2013-09-01 00:30:00,
2013-08-31 16:35:00,51.9,42.0,29.84,North,360,5.0,6.0,69,0.00,,,0.02,Wunderground v.1.15,2013-09-01 00:35:00,
2013-08-31 16:40:00,51.8,41.9,29.84,NNE,32,6.0,6.0,69,0.00,,,0.02,Wunderground v.1.15,2013-09-01 00:40:00,
2013-08-31 16:45:00,51.8,41.9,29.83,North,355,6.0,7.0,69,0.00,,,0.02,Wunderground v.1.15,2013-09-01 00:45:00,
2013-08-31 16:50:00,51.6,41.8,29.84,NE,49,5.0,5.0,69,0.00,,,0.02,Wunderground v.1.15,2013-09-01 00:50:00,
2013-08-31 16:55:00,51.4,41.9,29.83,NNE,20,4.0,5.0,70,0.00,,,0.02,Wunderground v.1.15,2013-09-01 00:55:00,
2013-08-31 17:00:00,51.4,41.9,29.83,East,96,3.0,6.0,70,0.00,,,0.02,Wunderground v.1.15,2013-09-01 01:00:00,
2013-08-31 17:05:00,51.2,41.7,29.84,NE,49,4.0,6.0,70,0.00,,,0.02,Wunderground v.1.15,2013-09-01 01:05:00,
2013-08-31 17:10:00,51.1,42.0,29.83,NNE,30,5.0,5.0,71,0.00,,,0.02,Wunderground v.1.15,2013-09-01 01:10:00,
2013-08-31 17:15:00,51.1,42.4,29.83,NNE,30,4.0,8.0,72,0.00,,,0.02,Wunderground v.1.15,2013-09-01 01:15:00,
2013-08-31 17:20:00,51.0,42.3,29.83,ENE,61,3.0,3.0,72,0.00,,,0.02,Wunderground v.1.15,2013-09-01 01:20:00,
2013-08-31 17:25:00,51.0,41.9,29.83,ENE,78,3.0,5.0,71,0.00,,,0.02,Wunderground v.1.15,2013-09-01 01:25:00,
2013-08-31 17:30:00,51.0,41.9,29.83,NNE,26,3.0,6.0,71,0.00,,,0.02,Wunderground v.1.15,2013-09-01 01:30:00,
2013-08-31 17:35:00,50.9,42.2,29.83,North,5,3.0,6.0,72,0.00,,,0.02,Wunderground v.1.15,2013-09-01 01:35:00,
2013-08-31 17:40:00,50.8,42.1,29.83,NE,40,2.0,4.0,72,0.00,,,0.02,Wunderground v.1.15,2013-09-01 01:40:00,
2013-08-31 17:45:00,50.7,42.4,29.84,North,5,2.0,4.0,73,0.00,,,0.02,Wunderground v.1.15,2013-09-01 01:45:00,
2013-08-31 17:50:00,50.6,42.3,29.83,NE,43,3.0,6.0,73,0.00,,,0.02,Wunderground v.1.15,2013-09-01 01:50:00,
2013-08-31 17:55:00,50.5,42.9,29.83,NE,55,3.0,6.0,75,0.00,,,0.02,Wunderground v.1.15,2013-09-01 01:55:00,
2013-08-31 18:00:00,50.4,42.8,29.83,ENE,69,4.0,4.0,75,0.00,,,0.02,Wunderground v.1.15,2013-09-01 02:00:00,
2013-08-31 18:05:00,50.1,43.2,29.83,NNE,15,4.0,4.0,77,0.00,,,0.02,Wunderground v.1.15,2013-09-01 02:05:00,
2013-08-31 18:10:00,50.0,42.7,29.83,NNW,342,2.0,2.0,76,0.00,,,0.02,Wunderground v.1.15,2013-09-01 02:10:00,
2013-08-31 18:15:00,50.0,42.7,29.83,NNW,342,1.0,2.0,76,0.00,,,0.02,Wunderground v.1.15,2013-09-01 02:15:00,
2013-08-31 18:20:00,50.2,42.9,29.83,NNW,342,0.0,0.0,76,0.00,,,0.02,Wunderground v.1.15,2013-09-01 02:20:00,
2013-08-31 18:25:00,50.4,42.4,29.83,ENE,68,1.0,4.0,74,0.00,,,0.02,Wunderground v.1.15,2013-09-01 02:25:00,
2013-08-31 18:30:00,50.6,42.6,29.83,North,355,2.0,6.0,74,0.00,,,0.02,Wunderground v.1.15,2013-09-01 02:30:00,
2013-08-31 18:35:00,50.8,42.5,29.83,NNE,21,3.0,6.0,73,0.00,,,0.02,Wunderground v.1.15,2013-09-01 02:35:00,
2013-08-31 18:40:00,50.6,43.3,29.83,North,5,4.0,9.0,76,0.00,,,0.02,Wunderground v.1.15,2013-09-01 02:40:00,
2013-08-31 18:45:00,49.9,43.6,29.83,North,355,5.0,9.0,79,0.00,,,0.02,Wunderground v.1.15,2013-09-01 02:45:00,
2013-08-31 18:50:00,49.4,43.2,29.83,NE,50,4.0,4.0,79,0.00,,,0.02,Wunderground v.1.15,2013-09-01 02:50:00,
2013-08-31 18:55:00,49.4,43.2,29.83,ENE,74,3.0,4.0,79,0.00,,,0.02,Wunderground v.1.15,2013-09-01 02:55:00,
2013-08-31 19:00:00,49.4,42.8,29.83,ENE,74,1.0,1.0,78,0.00,,,0.02,Wunderground v.1.15,2013-09-01 03:00:00,
2013-08-31 19:05:00,49.5,43.3,29.83,ENE,74,0.0,1.0,79,0.00,,,0.02,Wunderground v.1.15,2013-09-01 03:05:00,
2013-08-31 19:10:00,49.6,43.7,29.83,ENE,74,0.0,0.0,80,0.00,,,0.02,Wunderground v.1.15,2013-09-01 03:10:00,
2013-08-31 19:15:00,49.6,43.4,29.82,ENE,74,0.0,0.0,79,0.00,,,0.02,Wunderground v.1.15,2013-09-01 03:15:00,
2013-08-31 19:20:00,49.7,44.1,29.82,ENE,74,0.0,2.0,81,0.00,,,0.02,Wunderground v.1.15,2013-09-01 03:20:00,
2013-08-31 19:25:00,50.0,44.1,29.82,ENE,74,0.0,2.0,80,0.00,,,0.02,Wunderground v.1.15,2013-09-01 03:25:00,
2013-08-31 19:30:00,50.5,43.2,29.82,ENE,61,1.0,3.0,76,0.00,,,0.02,Wunderground v.1.15,2013-09-01 03:30:00,
2013-08-31 19:35:00,50.8,42.8,29.82,ENE,78,1.0,4.0,74,0.00,,,0.02,Wunderground v.1.15,2013-09-01 03:35:00,
2013-08-31 19:40:00,51.1,42.7,29.81,NE,48,1.0,1.0,73,0.00,,,0.02,Wunderground v.1.15,2013-09-01 03:40:00,
2013-08-31 19:45:00,51.4,42.7,29.81,NNE,27,1.0,4.0,72,0.00,,,0.02,Wunderground v.1.15,2013-09-01 03:45:00,
2013-08-31 19:50:00,51.8,42.7,29.81,North,355,2.0,5.0,71,0.00,,,0.02,Wunderground v.1.15,2013-09-01 03:50:00,
2013-08-31 19:55:00,51.6,42.1,29.82,NE,51,3.0,5.0,70,0.00,,,0.02,Wunderground v.1.15,2013-09-01 03:55:00,
2013-08-31 20:00:00,51.2,42.5,29.82,ENE,57,4.0,4.0,72,0.00,,,0.02,Wunderground v.1.15,2013-09-01 04:00:00,
2013-08-31 20:05:00,50.8,42.1,29.81,ENE,72,2.0,4.0,72,0.00,,,0.02,Wunderground v.1.15,2013-09-01 04:05:00,
2013-08-31 20:10:00,50.7,42.4,29.82,NE,34,1.0,4.0,73,0.00,,,0.02,Wunderground v.1.15,2013-09-01 04:10:00,
2013-08-31 20:15:00,50.8,42.5,29.81,NE,45,1.0,4.0,73,0.00,,,0.02,Wunderground v.1.15,2013-09-01 04:15:00,
2013-08-31 20:20:00,50.9,42.2,29.81,NNE,33,2.0,2.0,72,0.00,,,0.02,Wunderground v.1.15,2013-09-01 04:20:00,
2013-08-31 20:25:00,51.0,42.3,29.81,NE,43,2.0,2.0,72,0.00,,,0.02,Wunderground v.1.15,2013-09-01 04:25:00,
2013-08-31 20:30:00,51.0,42.3,29.81,NE,52,1.0,3.0,72,0.00,,,0.02,Wunderground v.1.15,2013-09-01 04:30:00,
2013-08-31 20:35:00,50.7,41.3,29.81,NW,316,3.0,7.0,70,0.00,,,0.02,Wunderground v.1.15,2013-09-01 04:35:00,
2013-08-31 20:40:00,50.5,41.1,29.81,WNW,302,4.0,4.0,70,0.00,,,0.02,Wunderground v.1.15,2013-09-01 04:40:00,
2013-08-31 20:45:00,50.2,41.2,29.81,WNW,302,3.0,4.0,71,0.00,,,0.02,Wunderground v.1.15,2013-09-01 04:45:00,
2013-08-31 20:50:00,50.0,41.3,29.81,WNW,302,0.0,0.0,72,0.00,,,0.02,Wunderground v.1.15,2013-09-01 04:50:00,
2013-08-31 20:55:00,49.7,42.1,29.81,NW,306,0.0,2.0,75,0.00,,,0.02,Wunderground v.1.15,2013-09-01 04:55:00,
2013-08-31 21:00:00,49.5,41.9,29.81,NW,306,0.0,2.0,75,0.00,,,0.02,Wunderground v.1.15,2013-09-01 05:00:00,
2013-08-31 21:05:00,49.3,41.7,29.81,NW,306,0.0,2.0,75,0.00,,,0.02,Wunderground v.1.15,2013-09-01 05:05:00,
2013-08-31 21:10:00,49.2,41.6,29.81,NW,306,0.0,0.0,75,0.00,,,0.02,Wunderground v.1.15,2013-09-01 05:10:00,
2013-08-31 21:15:00,49.0,41.8,29.81,NW,313,0.0,0.0,76,0.00,,,0.02,Wunderground v.1.15,2013-09-01 05:15:00,
2013-08-31 21:20:00,48.8,41.6,29.81,NW,313,0.0,0.0,76,0.00,,,0.02,Wunderground v.1.15,2013-09-01 05:20:00,
2013-08-31 21:25:00,48.8,41.6,29.81,NW,313,0.0,0.0,76,0.00,,,0.02,Wunderground v.1.15,2013-09-01 05:25:00,
2013-08-31 21:30:00,48.9,41.7,29.81,NW,313,0.0,1.0,76,0.00,,,0.02,Wunderground v.1.15,2013-09-01 05:30:00,
2013-08-31 21:35:00,49.0,41.4,29.81,NW,318,1.0,1.0,75,0.00,,,0.02,Wunderground v.1.15,2013-09-01 05:35:00,
2013-08-31 21:40:00,49.1,41.5,29.81,NW,318,1.0,1.0,75,0.00,,,0.02,Wunderground v.1.15,2013-09-01 05:40:00,
2013-08-31 21:45:00,49.1,41.9,29.81,NW,318,0.0,1.0,76,0.00,,,0.02,Wunderground v.1.15,2013-09-01 05:45:00,
2013-08-31 21:50:00,48.8,41.6,29.81,NW,318,0.0,0.0,76,0.00,,,0.02,Wunderground v.1.15,2013-09-01 05:50:00,
2013-08-31 21:55:00,48.5,41.6,29.81,NW,318,0.0,0.0,77,0.00,,,0.02,Wunderground v.1.15,2013-09-01 05:55:00,
2013-08-31 22:00:00,48.2,41.3,29.81,NW,318,0.0,0.0,77,0.00,,,0.02,Wunderground v.1.15,2013-09-01 06:00:00,
2013-08-31 22:05:00,47.9,41.0,29.81,NW,318,0.0,0.0,77,0.00,,,0.02,Wunderground v.1.15,2013-09-01 06:05:00,
2013-08-31 22:10:00,47.7,41.5,29.81,NW,318,0.0,0.0,79,0.00,,,0.02,Wunderground v.1.15,2013-09-01 06:10:00,
2013-08-31 22:15:00,47.2,41.3,29.81,NW,318,0.0,0.0,80,0.00,,,0.02,Wunderground v.1.15,2013-09-01 06:15:00,
2013-08-31 22:20:00,46.9,41.1,29.81,NW,318,0.0,0.0,80,0.00,,,0.02,Wunderground v.1.15,2013-09-01 06:20:00,
2013-08-31 22:25:00,46.6,41.1,29.81,NW,318,0.0,0.0,81,0.00,,,0.02,Wunderground v.1.15,2013-09-01 06:25:00,
2013-08-31 22:30:00,46.5,40.7,29.81,NW,326,0.0,4.0,80,0.00,,,0.02,Wunderground v.1.15,2013-09-01 06:30:00,
2013-08-31 22:35:00,46.7,40.2,29.81,NW,326,1.0,4.0,78,0.00,,,0.02,Wunderground v.1.15,2013-09-01 06:35:00,
2013-08-31 22:40:00,46.8,41.0,29.81,NW,326,1.0,1.0,80,0.00,,,0.02,Wunderground v.1.15,2013-09-01 06:40:00,
2013-08-31 22:45:00,46.5,41.0,29.81,NW,326,0.0,1.0,81,0.00,,,0.02,Wunderground v.1.15,2013-09-01 06:45:00,
2013-08-31 22:50:00,45.9,40.4,29.81,NW,326,0.0,0.0,81,0.00,,,0.02,Wunderground v.1.15,2013-09-01 06:50:00,
2013-08-31 22:55:00,45.2,40.0,29.81,NW,326,0.0,0.0,82,0.00,,,0.02,Wunderground v.1.15,2013-09-01 06:55:00,
2013-08-31 23:00:00,44.6,39.8,29.81,NW,326,0.0,0.0,83,0.00,,,0.02,Wunderground v.1.15,2013-09-01 07:00:00,
2013-08-31 23:05:00,44.1,39.6,29.81,NW,326,0.0,0.0,84,0.00,,,0.02,Wunderground v.1.15,2013-09-01 07:05:00,
2013-08-31 23:10:00,43.7,39.5,29.80,NW,326,0.0,0.0,85,0.00,,,0.02,Wunderground v.1.15,2013-09-01 07:10:00,
2013-08-31 23:15:00,43.3,39.4,29.80,NW,326,0.0,0.0,86,0.00,,,0.02,Wunderground v.1.15,2013-09-01 07:15:00,
2013-08-31 23:25:00,42.7,39.1,29.80,NNW,330,0.0,2.0,87,0.00,,,0.02,Wunderground v.1.15,2013-09-01 07:25:00,
2013-08-31 23:30:00,42.8,39.2,29.80,NNW,332,1.0,1.0,87,0.00,,,0.02,Wunderground v.1.15,2013-09-01 07:30:00,
2013-08-31 23:35:00,42.8,39.2,29.80,NNW,332,0.0,1.0,87,0.00,,,0.02,Wunderground v.1.15,2013-09-01 07:35:00,
2013-08-31 23:40:00,42.7,39.1,29.80,NNW,332,0.0,0.0,87,0.00,,,0.02,Wunderground v.1.15,2013-09-01 07:40:00,
2013-08-31 23:45:00,42.5,39.2,29.80,NNW,332,0.0,0.0,88,0.00,,,0.02,Wunderground v.1.15,2013-09-01 07:45:00,
2013-08-31 23:50:00,42.5,39.2,29.80,NNW,332,0.0,0.0,88,0.00,,,0.02,Wunderground v.1.15,2013-09-01 07:50:00,
2013-08-31 23:55:00,42.4,39.4,29.81,NNW,332,0.0,0.0,89,0.00,,,0.02,Wunderground v.1.15,2013-09-01 07:55:00,